Find Starlink 6115

NORAD ID: 56123 Int'l Des: 2023-046 Owner: SPXS Country: US Constellation: starlink operational
LEOCIRCULAR

Current View

Loading 3D Globe...

About Starlink 6115

Description loading...

Upcoming Passes

Passes for default location (London). Set your location on the main map for personalized predictions.

Altitude History

Loading altitude history...

Two-Line Element Set

1 56123U 23046AH 26151.07183602 .00002979 00000-0 11777-3 0 9997
2 56123 43.0061 42.2295 0001077 276.9433 83.1297 15.27566138174798
Epoch: May 31, 2026 • Age: 19 hours

Current Status

Altitude 488.8 km
Velocity 7.62 km/s
Sub-Earth Point -25.36°S, 172.34°E
Launch Date Mar 29, 2023
Age 3.1 years
Type internet

Technical Details

Classification Payload
Mass 305.00 kg
Dry Mass 290.00 kg
Total Mass 305.00 kg
Length 0.20 m
Diameter 2.80 m
Span 9.00 m
Shape Box + pan
Manufacturer SPXS
Bus Type Starlink
Phase Status In Orbit
Owner/State SPXS/US

Most Searched